www.pogodaiklimat.ru

Погода и климат >> Архив погоды >> Антарктида >> Halley


ПОГОДА в Halley

  • Прогноз погоды в Halley
  • Монитор погоды в Halley
  • Климат города

АРХИВ ПОГОДЫ в Halley

Время (UTC), дата Ветер
(напр.,м/с)
 
Видим.   Явления Облачность Т
(С)
Тd
(С)
f
(%)
Тe
(С)
Тes
(С)
Комфортность P
(гПа)
Po
(гПа)
Тmin
(С)
Tmax
(С)
R
(мм)
R24
(мм)
S
(см)
14 8.12 В 4 н/о н/о -6.3 -8.0 88 -13 -13 982.4 978.6
13 8.12 В 5 н/о н/о -5.7 -7.7 86 -13 -13 982.4 978.7
15 8.12 СВ 3 н/о н/о -5.9 -7.6 88 -12 -12 982.4 978.6
16 8.12 СВ 3 н/о н/о -5.8 -7.3 89 -11 -11 982.4 978.6
17 8.12 СВ 1 н/о н/о -5.3 -6.6 91 -8 -8 982.6 978.9
18 8.12 н/о н/о -5.2 -6.6 90 983.0 979.3
20 8.12 ЮЗ 1 н/о н/о -6.9 -7.8 93 -9 -9 983.2 979.4
19 8.12 н/о н/о -3.9 -6.2 84 983.1 979.4
21 8.12 н/о н/о -6.7 -8.9 84 983.2 979.4
23 8.12 н/о н/о -9.2 -11.4 84 983.3 979.5
00 9.12 З 1 н/о н/о -10.7 -12.3 88 -13 -13 983.4 979.6
01 9.12 ЮЗ 1 н/о н/о -12.4 -13.4 92 -15 -15 983.8 979.9
02 9.12 н/о н/о -13.0 -14.5 88 984.0 980.1
04 9.12 н/о н/о -13.3 -15.6 83 984.0 980.1
05 9.12 н/о н/о -11.8 -15.6 73 984.4 980.6
06 9.12 н/о н/о -11.5 -16.7 65 984.7 980.9
07 9.12 н/о н/о -9.9 -15.5 64 985.3 981.5
11 9.12 н/о н/о -7.1 -10.6 76 986.3 982.5
10 9.12 н/о н/о -6.2 -11.6 66 986.1 982.3
12 9.12 З 1 н/о н/о -4.9 -9.7 69 -7 -7 986.7 982.9
14 9.12 н/о н/о -2.2 -10.9 51 987.0 983.3
15 9.12 ЮЗ 2 н/о н/о -3.5 -9.5 63 -6 -6 987.2 983.5
17 9.12 ЮЗ 2 н/о н/о -3.3 -8.0 70 -7 -7 987.5 983.8
18 9.12 ЮЗ 2 н/о н/о -4.4 -5.9 89 -9 -9 987.8 984.0
19 9.12 ЮЗ 1 н/о н/о -4.3 -6.9 82 -7 -7 988.4 984.6
21 9.12 ЮЗ 3 н/о н/о -5.8 -7.2 90 -12 -12 988.9 985.1
22 9.12 З 3 н/о н/о -6.2 -7.7 89 -12 -12 989.0 985.2
23 9.12 З 4 н/о н/о -6.5 -8.4 86 -13 -13 989.2 985.4
00 10.12 З 3 н/о н/о -11.1 -12.3 91 -17 -17 989.8 985.9
03 10.12 З 4 н/о н/о -9.7 -10.9 91 -16 -16 990.1 986.3
04 10.12 З 4 н/о н/о -8.3 -9.5 91 -15 -15 990.5 986.7
08 10.12 З 6 н/о н/о -6.6 -8.0 90 -15 -15 992.0 988.2
07 10.12 З 6 н/о н/о -6.9 -8.2 90 -15 -15 991.8 988.0
09 10.12 З 6 н/о н/о -6.0 -7.6 88 -14 -14 992.2 988.4
11 10.12 ЮЗ 6 н/о н/о -5.8 -8.2 83 -13 -13 992.3 988.5
12 10.12 ЮЗ 6 н/о н/о -5.9 -8.7 81 -14 -14 992.7 988.9
15 10.12 ЮЗ 8 н/о н/о -5.8 -8.1 84 -15 -15 993.1 989.3
16 10.12 ЮЗ 8 н/о н/о -5.2 -7.8 82 -14 -14 993.4 989.6
17 10.12 ЮЗ 7 н/о н/о -5.2 -8.0 81 -13 -13 993.7 989.9
19 10.12 ЮЗ 6 н/о н/о -5.4 -8.1 81 -13 -13 994.4 990.6
20 10.12 З 5 н/о н/о -6.3 -8.7 83 -14 -14 994.6 990.8
21 10.12 З 5 н/о н/о -5.7 -7.4 88 -13 -13 994.7 990.9
22 10.12 З 5 н/о н/о -5.6 -7.5 86 -13 -13 994.9 991.1
23 10.12 З 4 н/о н/о -5.9 -7.5 88 -13 -13 995.0 991.2
00 11.12 З 4 н/о н/о -5.9 -7.6 88 -12 -12 995.4 991.6
01 11.12 ЮЗ 3 н/о н/о -6.4 -7.9 89 -12 -12 995.6 991.8
02 11.12 З 3 н/о н/о -6.5 -8.1 88 -12 -12 996.0 992.2
04 11.12 З 3 н/о н/о -6.5 -7.9 90 -12 -12 996.7 992.9
05 11.12 З 2 н/о н/о -6.4 -7.4 93 -11 -11 996.9 993.1
06 11.12 штиль 0 н/о н/о -5.0 -7.2 85 -6 -6 997.3 993.5
07 11.12 н/о н/о -6.2 -8.0 87 997.8 994.0
10 11.12 С 1 н/о н/о -6.0 -7.9 86 -8 -8 998.7 994.9
11 11.12 С 2 н/о н/о -5.5 -7.6 85 -9 -9 998.8 995.0
12 11.12 С 2 н/о н/о -5.5 -7.5 86 -10 -10 999.1 995.3
14 11.12 З 2 н/о н/о -2.9 -6.7 75 -6 -6 999.5 995.7
13 11.12 С 2 н/о н/о -4.8 -6.8 86 -8 -8 999.3 995.5
15 11.12 штиль 0 н/о н/о -0.2 -7.2 59 -1 -1 999.6 995.9
16 11.12 штиль 0 н/о н/о -0.6 -7.7 59 -1 -1 999.9 996.2
18 11.12 н/о н/о -1.7 -6.1 72 1000.5 996.7
19 11.12 СВ 1 н/о н/о -4.5 -6.8 84 -7 -7 1000.7 996.9
20 11.12 н/о н/о -5.2 -7.1 86 1001.0 997.2
21 11.12 н/о н/о -5.6 -7.5 86 1001.2 997.4
22 11.12 н/о н/о -6.3 -7.9 88 1001.2 997.4
23 11.12 В 1 н/о н/о -6.9 -8.0 92 -9 -9 1001.2 997.4
00 12.12 В 2 н/о н/о -7.2 -8.1 93 -11 -11 1001.3 997.5
01 12.12 В 1 н/о н/о -7.4 -8.4 93 -10 -10 1001.4 997.6
02 12.12 СВ 2 н/о н/о -7.5 -8.4 93 -11 -11 1001.3 997.5
03 12.12 ЮВ 2 н/о н/о -7.5 -8.4 93 -11 -11 1001.3 997.5
04 12.12 В 3 н/о н/о -7.6 -8.7 92 -14 -14 1001.1 997.3
05 12.12 В 5 н/о н/о -7.6 -9.0 90 -15 -15 1000.8 997.0
06 12.12 В 4 н/о н/о -8.3 -10.1 87 -15 -15 1000.8 996.9
07 12.12 В 5 н/о н/о -8.4 -9.9 89 -16 -16 1000.7 996.8
08 12.12 В 5 н/о н/о -7.8 -9.4 88 -16 -16 1000.4 996.6
11 12.12 В 7 н/о н/о -8.4 -11.6 78 -17 -17 999.5 995.6
12 12.12 В 7 н/о н/о -8.1 -11.2 78 -17 -17 999.0 995.2
13 12.12 В 7 н/о н/о -7.9 -10.6 81 -17 -17 998.8 995.0
14 12.12 В 7 н/о н/о -7.6 -10.1 82 -16 -16 998.3 994.5
15 12.12 В 8 н/о н/о -7.1 -9.4 84 -16 -16 997.6 993.8
17 12.12 В 7 н/о н/о -6.7 -8.7 86 -15 -15 996.9 993.1
16 12.12 В 8 н/о н/о -6.8 -9.0 84 -16 -16 997.3 993.5
19 12.12 В 7 н/о н/о -6.6 -8.7 85 -15 -15 995.7 991.9
20 12.12 В 7 н/о н/о -6.0 -7.3 90 -14 -14 995.1 991.3
21 12.12 В 7 н/о н/о -6.1 -7.3 91 -15 -15 994.7 990.9
23 12.12 В 6 н/о н/о -6.5 -7.9 90 -14 -14 993.2 989.4
22 12.12 В 6 н/о н/о -6.2 -7.4 91 -14 -14 993.9 990.1
00 13.12 В 5 н/о н/о -7.1 -8.8 88 -14 -14 992.3 988.5
01 13.12 В 4 н/о н/о -8.2 -10.3 85 -15 -15 991.4 987.6
02 13.12 В 2 н/о н/о -9.9 -12.0 85 -15 -15 990.5 986.7
03 13.12 В 2 н/о н/о -11.5 -13.9 82 -15 -15 989.7 985.8
05 13.12 Ю 2 н/о н/о -13.2 -16.4 77 -17 -17 987.9 984.0
04 13.12 н/о н/о -8.4 -14.2 63 988.6 984.8
06 13.12 В 6 н/о н/о -10.8 -14.8 72 -19 -19 986.7 982.9
07 13.12 В 5 н/о н/о -11.3 -14.2 79 -19 -19 986.4 982.6
08 13.12 В 9 н/о н/о -9.9 -11.9 85 -20 -20 986.2 982.4
09 13.12 В 7 н/о н/о -8.7 -10.8 85 -18 -18 985.8 982.0
10 13.12 В 9 н/о н/о -7.6 -9.5 86 -18 -18 985.5 981.7
12 13.12 В 9 н/о н/о -6.2 -8.3 85
13 13.12 В 9 н/о н/о -4.8 -7.2 83 -14 -14 984.1 980.4
14 13.12 В 9 н/о н/о -4.4 -6.5 85 -14 -14 983.7 980.0
17 13.12 В 10 н/о н/о -3.2 -5.2 86 -12 -12 982.9 979.2
20 13.12 В 5 н/о н/о -3.2 -5.0 87 -10 -10 983.1 979.4
19 13.12 В 8 н/о н/о -3.1 -5.1 86 -11 -11 983.2 979.5
22 13.12 СВ 7 н/о н/о -3.5 -4.8 91 -11 -11 983.7 980.0
00 14.12 СВ 11 н/о н/о -4.2 -5.3 92 -14 -14 984.2 980.5
01 14.12 В 8 н/о н/о -4.1 -5.3 91 -13 -13 984.1 980.4
03 14.12 В 10 н/о н/о -3.6 -4.5 93 -13 -13 984.3 980.6
05 14.12 В 13 н/о н/о -3.5 -3.9 97 -14 -14 984.4 980.7
06 14.12 В 13 н/о н/о -3.5 -3.9 97 -14 -14 984.7 981.0
07 14.12 В 14 н/о н/о -3.4 -3.8 97 -14 -14 984.9 981.2
08 14.12 В 13 н/о н/о -3.6 -4.0 97 -14 -14 985.6 981.9
10 14.12 В 13 н/о н/о -3.3 -3.7 97 -14 -14 986.6 982.9
11 14.12 В 12 н/о н/о -3.2 -3.6 97 -13 -13 987.5 983.8
12 14.12 В 13 н/о н/о -3.4 -3.9 96 -14 -14 988.0 984.3
13 14.12 В 13 н/о н/о -3.2 -3.6 97 -14 -14 988.5 984.8
15 14.12 В 11 н/о н/о -3.2 -3.7 96 -13 -13 989.6 985.9
17 14.12 В 10 н/о н/о -3.1 -3.6 96 -13 -13 990.5 986.8
18 14.12 В 11 н/о н/о -3.2 -3.8 96 -13 -13 991.2 987.5
20 14.12 В 10 н/о н/о -3.2 -3.9 95 -13 -13 992.0 988.2
23 14.12 В 8 н/о н/о -3.3 -4.9 89 -12 -12 993.2 989.4
22 14.12 В 10 н/о н/о -3.4 -4.6 91 -13 -13 992.9 989.1
01 15.12 В 6 н/о н/о -4.8 -6.9 85 -13 -13 993.4 989.6
03 15.12 В 5 н/о н/о -6.4 -8.6 84 -14 -14 993.6 989.8
04 15.12 В 5 н/о н/о -7.5 -9.3 87 -15 -15 993.5 989.7
06 15.12 В 6 н/о н/о -7.0 -9.4 83 -15 -15 993.3 989.5
11 15.12 В 3 н/о н/о -4.0 -7.5 77 -9 -9 991.7 987.9

 

Местоположение метеостанции Halley (Антарктида): широта -75.50 долгота -26.65 высота над уровнем моря 30 м.

В архиве по умолчанию представлена погода в Halley за последнюю неделю. Архивные данные за месяц целиком и за предыдущие месяцы, начиная с января 2011 года, Вы можете получить, выбрав интересующий диапазон дат из раскрывающегося списка и нажав кнопку "Ввод!".

Внимание! Время в таблицах - всемирное. Для получения местного времени необходимо прибавить поправку, которая в Halley равна 0 ч.

Смотрите также архив погоды в соседних городах и на ближайших метеорологических станциях:

Погода в Base Belgrano Ii (Антарктида) (332 км)
Погода в Nordenskiold Base (Антарктида) (482 км)
Погода в Soerasen (Антарктида) (695 км)
Погода в Kohnen Ep9 (Антарктида) (750 км)
Погода в Neumayer Station (Антарктида) (797 км)
Погода в SANAE (Антарктида) (851 км)
Погода в Troll (Антарктида) (970 км)
Погода в Butler Island (Антарктида) (1082 км)
Погода в Sky Blue (Антарктида) (1250 км)
Погода в Maitri (Антарктида) (1317 км)

Пояснения к столбцам:

Ветер - указаны скорость ветра в м/с - средняя за 10 мин, порывы в срок и между сроками (в фигурных скобках) и направление, откуда дует ветер: С - северный, СВ - северо-восточный, В - восточный, ЮВ - юго-восточный, Ю - южный, ЮЗ - юго-западный, З - западный, СЗ - северо-западный.
Видимость - горизонтальная дальность видимости в метрах или километрах. При видимости от 1 до 10 км при отсутствии осадков обычно наблюдается дымка, при ухудшении видимости до 1 км и менее - туман. В сухую погоду видимость может ухудшаться дымом, пылью или мглою.
Явления - указаны атмосферные явления, наблюдавшиеся в срок или в последний час перед сроком; фигурными скобками обозначены явления, наблюдавшиеся между сроками (за 1-3 часа до срока); квадратными скобками обозначены град или гололедные отложения с указанием их диаметра в мм.
Облачность - указаны через наклонную черту общая и нижняя облачность в баллах и высота нижней границы облаков в метрах; квадратными скобками обозначены формы облаков: Ci - перистые, Cs - перисто-слоистые, Cc - перисто-кучевые, Ac - высококучевые, As - высокослоистые, Sc - слоисто-кучевые, Ns - слоисто-дождевые, Cu - кучевые, Cb - кучево-дождевые. Подробнее классификацию облаков см. в Атласе облаков (PDF).
T - Температура воздуха - температура, измеренная на высоте 2 м над землей.
Td - Температура точки росы - температура, при понижении до которой содержащийся в воздухе водяной пар достигнет насыщения.
f - Относительная влажность воздуха - влажноcть воздуха, измеренная на высоте 2 м над землей.
Te - Эффективная температура - температура, которую ощущает одетый по сезону человек в тени. Характеристика душности погоды. При расчете учитывается влияние влажности воздуха и скорости ветра на теплоощущения человека.
Tes - Эффективная температура на солнце - температура, которую ощущает человек, с поправкой на солнечный нагрев. Характеристика знойности погоды. Зависит от высоты солнца над горизонтом, облачности и скорости ветра. Ночью, в пасмурную погоду, а также при ветре 12 м/с и более поправка равна нулю.
P - Атмосферное давление - приведенное к уровню моря атмосферное давление.
Po - Атмосферное давление - измеренное на уровне метеостанции атмосферное давление.
Tmin - Минимальная температура - минимум температуры воздуха на высоте 2 м над землей.
Tmax - Максимальная температура - максимум температуры воздуха на высоте 2 м над землей.
R - Количество осадков - Количество выпавших осадков за период времени, мм. При наведении курсора мыши на число - период времени, за который выпало указанное количество осадков.
R24 - Количество осадков - Количество выпавших осадков за 24 часа, мм.
S - Снежный покров - Высота снежного покрова, см. При наведении курсора мыши на число - состояние снежного покрова и степень покрытия местности в баллах.